Time,TemperatureF,DewpointF,PressureIn,WindDirection,WindDirectionDegrees,WindSpeedMPH,WindSpeedGustMPH,Humidity,HourlyPrecipIn,Conditions,Clouds,dailyrainin,SoftwareType,DateUTC
2013-03-29 00:03:00,26.1,20.5,30.27,NW,315,0.0,0.0,79,0.00,OVC,,0.00,WeatherDisplay:10.37,2013-03-29 05:03:00,
2013-03-29 00:08:00,25.9,20.3,30.27,NW,315,0.0,0.0,79,0.00,OVC,,0.00,WeatherDisplay:10.37,2013-03-29 05:08:00,
2013-03-29 00:13:00,25.5,20.2,30.27,NW,315,0.0,0.0,80,0.00,OVC,,0.00,WeatherDisplay:10.37,2013-03-29 05:13:00,
2013-03-29 00:19:00,25.3,20.3,30.27,NW,315,0.0,0.0,81,0.00,OVC,,0.00,WeatherDisplay:10.37,2013-03-29 05:19:00,
2013-03-29 00:24:00,25.2,20.2,30.27,NW,315,0.0,0.0,81,0.00,OVC,,0.00,WeatherDisplay:10.37,2013-03-29 05:24:00,
2013-03-29 00:29:00,25.2,19.9,30.27,NW,315,0.0,0.0,80,0.00,OVC,,0.00,WeatherDisplay:10.37,2013-03-29 05:29:00,
2013-03-29 00:34:00,25.0,19.4,30.27,NW,315,0.0,0.0,79,0.00,OVC,,0.00,WeatherDisplay:10.37,2013-03-29 05:34:00,
2013-03-29 00:39:00,24.6,19.0,30.27,NW,315,0.0,0.0,79,0.00,OVC,,0.00,WeatherDisplay:10.37,2013-03-29 05:39:00,
2013-03-29 00:44:00,24.3,19.0,30.27,NW,315,0.0,0.0,80,0.00,OVC,,0.00,WeatherDisplay:10.37,2013-03-29 05:44:00,
2013-03-29 00:49:00,24.4,20.3,30.27,NW,315,0.0,0.0,84,0.00,OVC,,0.00,WeatherDisplay:10.37,2013-03-29 05:49:00,
2013-03-29 00:54:00,24.4,20.0,30.27,NW,315,0.0,0.0,83,0.00,OVC,,0.00,WeatherDisplay:10.37,2013-03-29 05:54:00,
2013-03-29 01:00:00,24.6,20.2,30.27,NW,315,0.0,0.0,83,0.00,OVC,,0.00,WeatherDisplay:10.37,2013-03-29 06:00:00,
2013-03-29 01:05:00,24.1,20.0,30.27,NW,315,0.0,0.0,84,0.00,OVC,,0.00,WeatherDisplay:10.37,2013-03-29 06:05:00,
2013-03-29 01:10:00,23.9,20.0,30.27,NW,315,0.0,0.0,85,0.00,OVC,,0.00,WeatherDisplay:10.37,2013-03-29 06:10:00,
2013-03-29 01:15:00,23.9,20.3,30.27,NW,315,0.0,0.0,86,0.00,OVC,,0.00,WeatherDisplay:10.37,2013-03-29 06:15:00,
2013-03-29 01:20:00,24.1,20.2,30.27,NW,315,0.0,0.0,85,0.00,OVC,,0.00,WeatherDisplay:10.37,2013-03-29 06:20:00,
2013-03-29 01:25:00,24.1,20.2,30.27,NW,315,0.0,0.0,85,0.00,OVC,,0.00,WeatherDisplay:10.37,2013-03-29 06:25:00,
2013-03-29 01:30:00,24.1,20.2,30.27,NW,315,0.0,0.0,85,0.00,OVC,,0.00,WeatherDisplay:10.37,2013-03-29 06:30:00,
2013-03-29 01:35:00,24.3,20.4,30.27,NW,315,0.0,0.0,85,0.00,OVC,,0.00,WeatherDisplay:10.37,2013-03-29 06:35:00,
2013-03-29 01:40:00,24.3,20.4,30.27,NW,315,0.0,0.0,85,0.00,OVC,,0.00,WeatherDisplay:10.37,2013-03-29 06:40:00,
2013-03-29 01:45:00,23.9,19.8,30.27,NW,315,0.0,0.0,84,0.00,OVC,,0.00,WeatherDisplay:10.37,2013-03-29 06:45:00,
2013-03-29 01:51:00,23.7,19.6,30.27,NW,315,0.0,0.0,84,0.00,OVC,,0.00,WeatherDisplay:10.37,2013-03-29 06:51:00,
2013-03-29 01:56:00,23.4,19.6,30.27,NW,315,0.0,0.0,85,0.00,OVC,,0.00,WeatherDisplay:10.37,2013-03-29 06:56:00,
2013-03-29 02:01:00,23.2,19.4,30.27,NW,315,0.0,0.0,85,0.00,OVC,,0.00,WeatherDisplay:10.37,2013-03-29 07:01:00,
2013-03-29 02:06:00,23.0,19.2,30.27,NW,315,0.0,0.0,85,0.00,OVC,,0.00,WeatherDisplay:10.37,2013-03-29 07:06:00,
2013-03-29 02:11:00,23.0,19.4,30.28,NW,315,0.0,0.0,86,0.00,OVC,,0.00,WeatherDisplay:10.37,2013-03-29 07:11:00,
2013-03-29 02:16:00,22.8,19.2,30.28,NW,315,0.0,0.0,86,0.00,OVC,,0.00,WeatherDisplay:10.37,2013-03-29 07:16:00,
2013-03-29 02:21:00,22.8,19.2,30.27,NW,315,0.0,0.0,86,0.00,OVC,,0.00,WeatherDisplay:10.37,2013-03-29 07:21:00,
2013-03-29 02:27:00,22.6,19.0,30.27,NW,315,0.0,0.0,86,0.00,OVC,,0.00,WeatherDisplay:10.37,2013-03-29 07:27:00,
2013-03-29 02:32:00,23.0,19.7,30.27,NW,315,0.0,0.0,87,0.00,OVC,,0.00,WeatherDisplay:10.37,2013-03-29 07:32:00,
2013-03-29 02:37:00,23.0,19.7,30.27,NW,315,0.0,0.0,87,0.00,OVC,,0.00,WeatherDisplay:10.37,2013-03-29 07:37:00,
2013-03-29 02:42:00,22.5,18.9,30.27,NW,315,0.0,0.0,86,0.00,OVC,,0.00,WeatherDisplay:10.37,2013-03-29 07:42:00,
2013-03-29 02:47:00,22.6,19.8,30.27,NW,315,0.0,0.0,89,0.00,OVC,,0.00,WeatherDisplay:10.37,2013-03-29 07:47:00,
2013-03-29 02:52:00,22.8,20.0,30.27,NW,315,0.0,0.0,89,0.00,OVC,,0.00,WeatherDisplay:10.37,2013-03-29 07:52:00,
2013-03-29 02:57:00,23.5,20.5,30.27,NW,315,0.0,0.0,88,0.00,OVC,,0.00,WeatherDisplay:10.37,2013-03-29 07:57:00,
2013-03-29 03:02:00,23.7,20.7,30.27,NW,315,0.0,0.0,88,0.00,OVC,,0.00,WeatherDisplay:10.37,2013-03-29 08:02:00,
2013-03-29 03:07:00,23.7,20.7,30.27,NW,315,0.0,0.0,88,0.00,OVC,,0.00,WeatherDisplay:10.37,2013-03-29 08:07:00,
2013-03-29 03:12:00,23.7,20.4,30.27,NW,315,0.0,0.0,87,0.00,OVC,,0.00,WeatherDisplay:10.37,2013-03-29 08:12:00,
2013-03-29 03:18:00,24.3,20.7,30.27,NW,315,0.0,0.0,86,0.00,OVC,,0.00,WeatherDisplay:10.37,2013-03-29 08:18:00,
2013-03-29 03:23:00,24.1,20.5,30.27,NW,315,0.0,0.0,86,0.00,OVC,,0.00,WeatherDisplay:10.37,2013-03-29 08:23:00,
2013-03-29 03:28:00,24.3,21.0,30.27,NW,315,0.0,0.0,87,0.00,OVC,,0.00,WeatherDisplay:10.37,2013-03-29 08:28:00,
2013-03-29 03:33:00,24.8,21.2,30.27,NW,315,0.0,0.0,86,0.00,OVC,,0.00,WeatherDisplay:10.37,2013-03-29 08:33:00,
2013-03-29 03:38:00,25.0,21.1,30.27,NW,315,0.0,0.0,85,0.00,OVC,,0.00,WeatherDisplay:10.37,2013-03-29 08:38:00,
2013-03-29 03:43:00,25.5,21.6,30.27,NW,315,0.0,0.0,85,0.00,OVC,,0.00,WeatherDisplay:10.37,2013-03-29 08:43:00,
2013-03-29 03:48:00,25.5,21.6,30.27,NW,315,0.0,0.0,85,0.00,OVC,,0.00,WeatherDisplay:10.37,2013-03-29 08:48:00,
2013-03-29 03:53:00,25.7,21.8,30.27,NW,315,0.0,0.0,85,0.00,OVC,,0.00,WeatherDisplay:10.37,2013-03-29 08:53:00,
2013-03-29 03:58:00,26.2,22.3,30.27,NW,315,0.0,0.0,85,0.00,OVC,,0.00,WeatherDisplay:10.37,2013-03-29 08:58:00,
2013-03-29 04:03:00,26.2,22.0,30.27,NW,315,0.0,0.0,84,0.00,OVC,,0.00,WeatherDisplay:10.37,2013-03-29 09:03:00,
2013-03-29 04:09:00,26.4,21.9,30.27,NW,315,0.0,0.0,83,0.00,OVC,,0.00,WeatherDisplay:10.37,2013-03-29 09:09:00,
2013-03-29 04:14:00,26.4,22.2,30.26,NW,315,0.0,0.0,84,0.00,OVC,,0.00,WeatherDisplay:10.37,2013-03-29 09:14:00,
2013-03-29 04:19:00,26.8,22.6,30.26,NW,315,0.0,0.0,84,0.00,OVC,,0.00,WeatherDisplay:10.37,2013-03-29 09:19:00,
2013-03-29 04:24:00,27.5,23.0,30.26,NW,315,0.0,0.0,83,0.00,OVC,,0.00,WeatherDisplay:10.37,2013-03-29 09:24:00,
2013-03-29 04:29:00,27.7,22.9,30.26,NW,315,0.0,0.0,82,0.00,OVC,,0.00,WeatherDisplay:10.37,2013-03-29 09:29:00,
2013-03-29 04:34:00,27.7,22.9,30.26,NW,315,0.0,0.0,82,0.00,OVC,,0.00,WeatherDisplay:10.37,2013-03-29 09:34:00,
2013-03-29 04:39:00,27.9,23.4,30.26,NW,315,0.0,0.0,83,0.00,OVC,,0.00,WeatherDisplay:10.37,2013-03-29 09:39:00,
2013-03-29 04:44:00,27.9,23.4,30.26,NW,315,0.0,0.0,83,0.00,OVC,,0.00,WeatherDisplay:10.37,2013-03-29 09:44:00,
2013-03-29 04:49:00,27.9,23.4,30.26,NW,315,0.0,0.0,83,0.00,OVC,,0.00,WeatherDisplay:10.37,2013-03-29 09:49:00,
2013-03-29 04:55:00,27.9,23.4,30.26,NW,315,0.0,0.0,83,0.00,OVC,,0.00,WeatherDisplay:10.37,2013-03-29 09:55:00,
2013-03-29 05:00:00,27.9,23.4,30.25,NW,315,0.0,0.0,83,0.00,OVC,,0.00,WeatherDisplay:10.37,2013-03-29 10:00:00,
2013-03-29 05:05:00,27.9,23.4,30.25,NW,315,0.0,0.0,83,0.00,OVC,,0.00,WeatherDisplay:10.37,2013-03-29 10:05:00,
2013-03-29 05:10:00,27.9,23.1,30.25,NW,315,0.0,0.0,82,0.00,OVC,,0.00,WeatherDisplay:10.37,2013-03-29 10:10:00,
2013-03-29 05:15:00,27.9,22.8,30.25,NW,315,0.0,0.0,81,0.00,OVC,,0.00,WeatherDisplay:10.37,2013-03-29 10:15:00,
2013-03-29 05:20:00,27.7,22.6,30.25,NW,315,0.0,0.0,81,0.00,OVC,,0.00,WeatherDisplay:10.37,2013-03-29 10:20:00,
2013-03-29 05:25:00,27.1,22.6,30.25,NW,315,0.0,0.0,83,0.00,OVC,,0.00,WeatherDisplay:10.37,2013-03-29 10:25:00,
2013-03-29 05:30:00,27.1,22.6,30.25,NW,315,0.0,0.0,83,0.00,OVC,,0.00,WeatherDisplay:10.37,2013-03-29 10:30:00,
2013-03-29 05:35:00,27.1,22.6,30.25,NW,315,0.0,0.0,83,0.00,OVC,,0.00,WeatherDisplay:10.37,2013-03-29 10:35:00,
2013-03-29 05:40:00,27.0,22.5,30.25,NW,315,0.0,0.0,83,0.00,OVC,,0.00,WeatherDisplay:10.37,2013-03-29 10:40:00,
2013-03-29 05:46:00,26.8,22.3,30.25,NW,315,0.0,0.0,83,0.00,OVC,,0.00,WeatherDisplay:10.37,2013-03-29 10:46:00,
2013-03-29 05:51:00,26.6,22.1,30.25,NW,315,0.0,0.0,83,0.00,OVC,,0.00,WeatherDisplay:10.37,2013-03-29 10:51:00,
2013-03-29 05:56:00,26.6,22.4,30.25,NW,315,0.0,0.0,84,0.00,OVC,,0.00,WeatherDisplay:10.37,2013-03-29 10:56:00,
2013-03-29 06:01:00,26.6,22.7,30.25,NW,315,0.0,0.0,85,0.00,OVC,,0.00,WeatherDisplay:10.37,2013-03-29 11:01:00,
2013-03-29 06:06:00,27.0,23.1,30.25,NW,315,0.0,0.0,85,0.00,OVC,,0.00,WeatherDisplay:10.37,2013-03-29 11:06:00,
2013-03-29 06:12:00,27.0,23.1,30.25,NW,315,0.0,0.0,85,0.00,OVC,,0.00,WeatherDisplay:10.37,2013-03-29 11:12:00,
2013-03-29 06:17:00,27.1,23.2,30.25,NW,315,0.0,0.0,85,0.00,OVC,,0.00,WeatherDisplay:10.37,2013-03-29 11:17:00,
2013-03-29 06:22:00,27.5,23.3,30.25,NW,315,0.0,0.0,84,0.00,OVC,,0.00,WeatherDisplay:10.37,2013-03-29 11:22:00,
2013-03-29 06:27:00,27.7,23.5,30.25,NW,315,0.0,0.0,84,0.00,OVC,,0.00,WeatherDisplay:10.37,2013-03-29 11:27:00,
2013-03-29 06:32:00,28.2,23.4,30.25,NW,315,0.0,0.0,82,0.00,OVC,,0.00,WeatherDisplay:10.37,2013-03-29 11:32:00,
2013-03-29 06:37:00,28.8,23.4,30.25,NW,315,0.0,0.0,80,0.00,OVC,,0.00,WeatherDisplay:10.37,2013-03-29 11:37:00,
2013-03-29 06:42:00,28.8,23.4,30.25,NW,315,0.0,0.0,80,0.00,OVC,,0.00,WeatherDisplay:10.37,2013-03-29 11:42:00,
2013-03-29 06:47:00,29.1,23.7,30.25,NW,315,0.0,0.0,80,0.00,OVC,,0.00,WeatherDisplay:10.37,2013-03-29 11:47:00,
2013-03-29 06:52:00,29.3,23.9,30.25,NW,315,0.2,1.7,80,0.00,OVC,,0.00,WeatherDisplay:10.37,2013-03-29 11:52:00,
2013-03-29 06:58:00,29.7,23.7,30.25,NW,315,1.9,2.3,78,0.00,OVC,,0.00,WeatherDisplay:10.37,2013-03-29 11:58:00,
2013-03-29 07:03:00,30.0,24.0,30.25,NW,315,0.9,1.1,78,0.00,OVC,,0.00,WeatherDisplay:10.37,2013-03-29 12:03:00,
2013-03-29 07:08:00,30.2,23.9,30.25,NW,315,1.5,1.7,77,0.00,OVC,,0.00,WeatherDisplay:10.37,2013-03-29 12:08:00,
2013-03-29 07:13:00,30.7,24.0,30.25,NW,315,1.3,2.3,76,0.00,OVC,,0.00,WeatherDisplay:10.37,2013-03-29 12:13:00,
2013-03-29 07:18:00,30.9,24.2,30.25,NW,315,0.0,0.0,76,0.00,OVC,,0.00,WeatherDisplay:10.37,2013-03-29 12:18:00,
2013-03-29 07:23:00,31.1,24.4,30.25,NW,315,1.0,1.7,76,0.00,OVC,,0.00,WeatherDisplay:10.37,2013-03-29 12:23:00,
2013-03-29 07:28:00,31.3,24.3,30.25,NW,315,0.0,0.0,75,0.00,OVC,,0.00,WeatherDisplay:10.37,2013-03-29 12:28:00,
2013-03-29 07:33:00,31.6,24.6,30.25,NW,315,0.8,1.1,75,0.00,OVC,,0.00,WeatherDisplay:10.37,2013-03-29 12:33:00,
2013-03-29 07:38:00,31.8,24.5,30.25,NW,315,0.0,2.2,74,0.00,OVC,,0.00,WeatherDisplay:10.37,2013-03-29 12:38:00,
2013-03-29 07:43:00,32.4,25.0,30.25,NW,315,0.6,1.1,74,0.00,OVC,,0.00,WeatherDisplay:10.37,2013-03-29 12:43:00,
2013-03-29 07:49:00,32.7,25.0,30.25,NW,315,0.6,1.7,73,0.00,OVC,,0.00,WeatherDisplay:10.37,2013-03-29 12:49:00,
2013-03-29 07:54:00,33.1,25.4,30.25,NW,315,0.6,2.2,73,0.00,OVC,,0.00,WeatherDisplay:10.37,2013-03-29 12:54:00,
2013-03-29 07:59:00,33.6,25.5,30.25,NW,315,1.9,2.3,72,0.00,OVC,,0.00,WeatherDisplay:10.37,2013-03-29 12:59:00,
2013-03-29 08:04:00,34.2,26.1,30.25,NW,315,1.9,2.3,72,0.00,OVC,,0.00,WeatherDisplay:10.37,2013-03-29 13:04:00,
2013-03-29 08:09:00,35.1,27.0,30.25,SE,135,1.8,2.3,72,0.00,OVC,,0.00,WeatherDisplay:10.37,2013-03-29 13:09:00,
2013-03-29 08:14:00,35.6,27.1,30.25,SE,135,0.0,1.1,71,0.00,OVC,,0.00,WeatherDisplay:10.37,2013-03-29 13:14:00,
2013-03-29 08:19:00,36.0,27.2,30.25,SE,135,2.4,3.5,70,0.00,OVC,,0.00,WeatherDisplay:10.37,2013-03-29 13:19:00,
2013-03-29 08:24:00,36.3,27.4,30.25,South,180,2.3,2.7,70,0.00,OVC,,0.00,WeatherDisplay:10.37,2013-03-29 13:24:00,
2013-03-29 08:29:00,37.0,28.1,30.25,ESE,112,1.1,2.3,70,0.00,OVC,,0.00,WeatherDisplay:10.37,2013-03-29 13:29:00,
2013-03-29 08:34:00,37.0,28.1,30.25,SSE,158,1.9,2.3,70,0.00,OVC,,0.00,WeatherDisplay:10.37,2013-03-29 13:34:00,
2013-03-29 08:40:00,38.1,28.8,30.25,SE,135,2.0,2.3,69,0.00,OVC,,0.00,WeatherDisplay:10.37,2013-03-29 13:40:00,
2013-03-29 08:45:00,38.8,28.8,30.25,South,180,1.4,1.4,67,0.00,OVC,,0.00,WeatherDisplay:10.37,2013-03-29 13:45:00,
2013-03-29 08:50:00,39.2,28.8,30.25,SE,135,1.9,2.7,66,0.00,OVC,,0.00,WeatherDisplay:10.37,2013-03-29 13:50:00,
2013-03-29 08:55:00,39.4,29.0,30.25,ESE,112,2.1,2.3,66,0.00,OVC,,0.00,WeatherDisplay:10.37,2013-03-29 13:55:00,
2013-03-29 09:00:00,39.4,29.0,30.25,SSW,202,2.2,3.7,66,0.00,OVC,,0.00,WeatherDisplay:10.37,2013-03-29 14:00:00,
2013-03-29 09:05:00,39.7,29.3,30.25,SE,135,2.3,2.3,66,0.00,OVC,,0.00,WeatherDisplay:10.37,2013-03-29 14:05:00,
2013-03-29 09:10:00,39.7,28.9,30.25,SSE,158,3.0,3.0,65,0.00,OVC,,0.00,WeatherDisplay:10.37,2013-03-29 14:10:00,
2013-03-29 09:15:00,39.9,29.1,30.25,NNW,338,1.9,3.5,65,0.00,OVC,,0.00,WeatherDisplay:10.37,2013-03-29 14:15:00,
2013-03-29 09:20:00,40.1,29.3,30.25,ESE,112,2.1,3.2,65,0.00,OVC,,0.00,WeatherDisplay:10.37,2013-03-29 14:20:00,
2013-03-29 09:25:00,40.3,29.5,30.26,ESE,112,2.7,2.7,65,0.00,OVC,,0.00,WeatherDisplay:10.37,2013-03-29 14:25:00,
2013-03-29 09:31:00,40.1,29.3,30.26,North,360,1.1,3.5,65,0.00,OVC,,0.00,WeatherDisplay:10.37,2013-03-29 14:31:00,
2013-03-29 09:36:00,39.0,28.6,30.26,North,360,1.6,2.3,66,0.00,OVC,,0.00,WeatherDisplay:10.37,2013-03-29 14:36:00,
2013-03-29 09:41:00,38.8,28.8,30.26,SSE,158,2.1,2.3,67,0.00,OVC,,0.00,WeatherDisplay:10.37,2013-03-29 14:41:00,
2013-03-29 09:46:00,39.2,29.2,30.26,SE,135,2.3,2.3,67,0.00,OVC,,0.00,WeatherDisplay:10.37,2013-03-29 14:46:00,
2013-03-29 09:51:00,39.4,30.4,30.26,SSE,158,1.8,2.3,70,0.00,OVC,,0.00,WeatherDisplay:10.37,2013-03-29 14:51:00,
2013-03-29 09:56:00,39.7,31.4,30.26,ESE,112,2.0,2.3,72,0.00,OVC,,0.00,WeatherDisplay:10.37,2013-03-29 14:56:00,
2013-03-29 10:02:00,39.0,31.1,30.25,SE,135,3.3,3.7,73,0.00,OVC,,0.00,WeatherDisplay:10.37,2013-03-29 15:02:00,
2013-03-29 10:07:00,39.4,30.8,30.25,SSE,158,3.9,3.9,71,0.00,OVC,,0.00,WeatherDisplay:10.37,2013-03-29 15:07:00,
2013-03-29 10:12:00,39.7,31.1,30.25,SE,135,2.3,3.5,71,0.00,OVC,,0.00,WeatherDisplay:10.37,2013-03-29 15:12:00,
2013-03-29 10:17:00,39.9,30.5,30.25,SE,135,2.3,3.7,69,0.00,OVC,,0.00,WeatherDisplay:10.37,2013-03-29 15:17:00,
2013-03-29 10:22:00,40.5,30.4,30.25,SSE,158,3.9,4.6,67,0.00,OVC,,0.00,WeatherDisplay:10.37,2013-03-29 15:22:00,
2013-03-29 10:27:00,41.0,30.9,30.25,SE,135,2.0,3.5,67,0.00,OVC,,0.00,WeatherDisplay:10.37,2013-03-29 15:27:00,
2013-03-29 10:32:00,41.4,30.9,30.25,ESE,112,2.8,3.5,66,0.00,OVC,,0.00,WeatherDisplay:10.37,2013-03-29 15:32:00,
2013-03-29 10:37:00,41.4,30.9,30.25,South,180,3.0,4.6,66,0.00,OVC,,0.00,WeatherDisplay:10.37,2013-03-29 15:37:00,
2013-03-29 10:43:00,41.2,30.7,30.25,SE,135,2.3,2.3,66,0.00,OVC,,0.00,WeatherDisplay:10.37,2013-03-29 15:43:00,
2013-03-29 10:48:00,41.5,30.6,30.25,South,180,3.7,4.6,65,0.00,OVC,,0.00,WeatherDisplay:10.37,2013-03-29 15:48:00,
2013-03-29 10:53:00,41.4,30.5,30.25,South,180,2.9,4.7,65,0.00,OVC,,0.00,WeatherDisplay:10.37,2013-03-29 15:53:00,
2013-03-29 10:58:00,41.9,31.0,30.25,South,180,3.9,4.6,65,0.00,OVC,,0.00,WeatherDisplay:10.37,2013-03-29 15:58:00,
2013-03-29 11:03:00,42.4,31.5,30.25,ESE,112,2.5,2.5,65,0.00,OVC,,0.00,WeatherDisplay:10.37,2013-03-29 16:03:00,
2013-03-29 11:08:00,44.4,32.2,30.25,South,180,4.7,5.8,62,0.00,OVC,,0.00,WeatherDisplay:10.37,2013-03-29 16:08:00,
2013-03-29 11:13:00,43.3,31.5,30.24,SSW,202,3.2,4.6,63,0.00,OVC,,0.00,WeatherDisplay:10.37,2013-03-29 16:13:00,
2013-03-29 11:18:00,43.0,31.6,30.24,SSE,158,4.0,4.7,64,0.00,OVC,,0.00,WeatherDisplay:10.37,2013-03-29 16:18:00,
2013-03-29 11:23:00,43.2,31.8,30.24,SE,135,3.2,4.7,64,0.00,OVC,,0.00,WeatherDisplay:10.37,2013-03-29 16:23:00,
2013-03-29 11:28:00,42.3,31.0,30.24,ESE,112,3.9,5.8,64,0.00,OVC,,0.00,WeatherDisplay:10.37,2013-03-29 16:28:00,
2013-03-29 11:34:00,42.8,31.5,30.23,ESE,112,3.4,3.7,64,0.00,OVC,,0.00,WeatherDisplay:10.37,2013-03-29 16:34:00,
2013-03-29 11:39:00,43.9,32.1,30.23,ESE,112,4.1,4.7,63,0.00,OVC,,0.00,WeatherDisplay:10.37,2013-03-29 16:39:00,
2013-03-29 11:44:00,43.2,31.4,30.23,South,180,3.8,5.8,63,0.00,OVC,,0.00,WeatherDisplay:10.37,2013-03-29 16:44:00,
2013-03-29 11:49:00,43.2,31.4,30.23,SSE,158,4.9,6.3,63,0.00,OVC,,0.00,WeatherDisplay:10.37,2013-03-29 16:49:00,
2013-03-29 11:54:00,43.7,31.9,30.23,South,180,5.3,6.8,63,0.00,OVC,,0.00,WeatherDisplay:10.37,2013-03-29 16:54:00,
2013-03-29 11:59:00,43.0,31.6,30.23,SE,135,3.2,5.8,64,0.00,OVC,,0.00,WeatherDisplay:10.37,2013-03-29 16:59:00,
2013-03-29 12:04:00,43.0,31.3,30.23,South,180,3.7,5.8,63,0.00,OVC,,0.00,WeatherDisplay:10.37,2013-03-29 17:04:00,
2013-03-29 12:09:00,43.0,31.6,30.22,South,180,4.3,5.8,64,0.00,OVC,,0.00,WeatherDisplay:10.37,2013-03-29 17:09:00,
2013-03-29 12:14:00,43.7,31.9,30.22,SSW,202,5.1,6.9,63,0.00,OVC,,0.00,WeatherDisplay:10.37,2013-03-29 17:14:00,
2013-03-29 12:19:00,43.5,31.7,30.22,SE,135,1.8,5.8,63,0.00,OVC,,0.00,WeatherDisplay:10.37,2013-03-29 17:19:00,
2013-03-29 12:25:00,43.3,31.5,30.22,SSW,202,3.5,5.8,63,0.00,OVC,,0.00,WeatherDisplay:10.37,2013-03-29 17:25:00,
2013-03-29 12:30:00,43.2,31.8,30.22,SSE,158,4.2,5.8,64,0.00,OVC,,0.00,WeatherDisplay:10.37,2013-03-29 17:30:00,
2013-03-29 12:35:00,44.4,32.6,30.23,SW,225,3.1,5.8,63,0.00,OVC,,0.00,WeatherDisplay:10.37,2013-03-29 17:35:00,
2013-03-29 12:40:00,44.2,32.4,30.23,SSW,202,4.8,5.8,63,0.00,OVC,,0.00,WeatherDisplay:10.37,2013-03-29 17:40:00,
2013-03-29 12:45:00,43.9,32.5,30.23,SSW,202,3.0,5.8,64,0.00,OVC,,0.00,WeatherDisplay:10.37,2013-03-29 17:45:00,
2013-03-29 12:50:00,43.7,32.3,30.22,South,180,3.8,5.8,64,0.00,OVC,,0.00,WeatherDisplay:10.37,2013-03-29 17:50:00,
2013-03-29 12:55:00,43.0,31.6,30.22,South,180,4.3,5.3,64,0.00,OVC,,0.00,WeatherDisplay:10.37,2013-03-29 17:55:00,
2013-03-29 13:00:00,42.6,31.7,30.23,SSW,202,4.0,4.6,65,0.00,OVC,,0.00,WeatherDisplay:10.37,2013-03-29 18:00:00,
2013-03-29 13:05:00,43.0,32.0,30.23,SSW,202,2.9,4.6,65,0.00,OVC,,0.00,WeatherDisplay:10.37,2013-03-29 18:05:00,
2013-03-29 13:10:00,43.7,32.7,30.22,SSW,202,3.3,4.6,65,0.00,OVC,,0.00,WeatherDisplay:10.37,2013-03-29 18:10:00,
2013-03-29 13:16:00,44.2,32.8,30.22,South,180,3.8,4.6,64,0.00,OVC,,0.00,WeatherDisplay:10.37,2013-03-29 18:16:00,
2013-03-29 13:21:00,43.9,32.1,30.22,SSW,202,3.8,7.3,63,0.00,OVC,,0.00,WeatherDisplay:10.37,2013-03-29 18:21:00,
2013-03-29 13:26:00,45.0,33.2,30.22,SSW,202,4.5,4.7,63,0.00,OVC,,0.00,WeatherDisplay:10.37,2013-03-29 18:26:00,
2013-03-29 13:31:00,46.2,33.5,30.22,SE,135,4.2,5.8,61,0.00,OVC,,0.00,WeatherDisplay:10.37,2013-03-29 18:31:00,
2013-03-29 13:37:00,46.6,33.9,30.21,SW,225,2.9,3.7,61,0.00,OVC,,0.00,WeatherDisplay:10.37,2013-03-29 18:37:00,
2013-03-29 13:42:00,47.3,33.7,30.21,SE,135,3.5,4.6,59,0.00,OVC,,0.00,WeatherDisplay:10.37,2013-03-29 18:42:00,
2013-03-29 13:47:00,47.7,34.1,30.21,SSE,158,3.0,3.5,59,0.00,OVC,,0.00,WeatherDisplay:10.37,2013-03-29 18:47:00,
2013-03-29 13:52:00,48.0,34.3,30.21,SSE,158,3.7,5.8,59,0.00,OVC,,0.00,WeatherDisplay:10.37,2013-03-29 18:52:00,
2013-03-29 13:57:00,48.4,34.3,30.21,SSW,202,3.5,5.3,58,0.00,OVC,,0.00,WeatherDisplay:10.37,2013-03-29 18:57:00,
2013-03-29 14:02:00,49.1,34.5,30.20,SW,225,4.0,5.8,57,0.00,OVC,,0.00,WeatherDisplay:10.37,2013-03-29 19:02:00,
2013-03-29 14:07:00,48.9,34.8,30.20,South,180,5.1,5.8,58,0.00,OVC,,0.00,WeatherDisplay:10.37,2013-03-29 19:07:00,
2013-03-29 14:13:00,48.7,34.6,30.20,ESE,112,4.1,4.7,58,0.00,OVC,,0.00,WeatherDisplay:10.37,2013-03-29 19:13:00,
2013-03-29 14:18:00,48.7,34.6,30.20,South,180,4.3,4.7,58,0.00,OVC,,0.00,WeatherDisplay:10.37,2013-03-29 19:18:00,
2013-03-29 14:23:00,47.7,34.5,30.19,SE,135,4.4,5.8,60,0.00,OVC,,0.00,WeatherDisplay:10.37,2013-03-29 19:23:00,
2013-03-29 14:28:00,49.5,34.9,30.19,West,270,2.7,3.5,57,0.00,OVC,,0.00,WeatherDisplay:10.37,2013-03-29 19:28:00,
2013-03-29 14:33:00,50.2,35.1,30.19,South,180,4.5,5.8,56,0.00,OVC,,0.00,WeatherDisplay:10.37,2013-03-29 19:33:00,
2013-03-29 14:38:00,50.2,35.1,30.19,ENE,68,3.3,5.8,56,0.00,OVC,,0.00,WeatherDisplay:10.37,2013-03-29 19:38:00,
2013-03-29 14:43:00,50.2,35.1,30.19,SSE,158,3.5,4.6,56,0.00,OVC,,0.00,WeatherDisplay:10.37,2013-03-29 19:43:00,
2013-03-29 14:48:00,50.4,35.3,30.19,South,180,4.7,5.8,56,0.00,OVC,,0.00,WeatherDisplay:10.37,2013-03-29 19:48:00,
2013-03-29 14:53:00,50.7,35.6,30.19,West,270,3.6,4.6,56,0.00,OVC,,0.00,WeatherDisplay:10.37,2013-03-29 19:53:00,
2013-03-29 14:58:00,51.3,35.7,30.18,SSW,202,3.3,3.7,55,0.00,OVC,,0.00,WeatherDisplay:10.37,2013-03-29 19:58:00,
2013-03-29 15:04:00,50.4,35.3,30.18,SSW,202,3.8,4.6,56,0.00,OVC,,0.00,WeatherDisplay:10.37,2013-03-29 20:04:00,
2013-03-29 15:09:00,50.0,34.9,30.18,SSE,158,3.3,4.6,56,0.00,OVC,,0.00,WeatherDisplay:10.37,2013-03-29 20:09:00,
2013-03-29 15:14:00,50.7,35.6,30.17,ESE,112,3.5,4.6,56,0.00,OVC,,0.00,WeatherDisplay:10.37,2013-03-29 20:14:00,
2013-03-29 15:19:00,51.8,35.7,30.17,WSW,248,5.1,5.8,54,0.00,OVC,,0.00,WeatherDisplay:10.37,2013-03-29 20:19:00,
2013-03-29 15:24:00,52.0,35.9,30.17,SW,225,3.2,3.7,54,0.00,OVC,,0.00,WeatherDisplay:10.37,2013-03-29 20:24:00,
2013-03-29 15:29:00,51.8,35.7,30.17,SSW,202,4.6,5.8,54,0.00,OVC,,0.00,WeatherDisplay:10.37,2013-03-29 20:29:00,
2013-03-29 15:34:00,52.0,35.9,30.16,South,180,3.3,4.6,54,0.00,OVC,,0.00,WeatherDisplay:10.37,2013-03-29 20:34:00,
2013-03-29 15:39:00,51.8,35.7,30.16,SSW,202,2.4,5.8,54,0.00,OVC,,0.00,WeatherDisplay:10.37,2013-03-29 20:39:00,
2013-03-29 15:44:00,52.5,35.8,30.16,SSW,202,3.0,4.6,53,0.00,OVC,,0.00,WeatherDisplay:10.37,2013-03-29 20:44:00,
2013-03-29 15:49:00,51.8,35.2,30.16,North,360,1.9,3.5,53,0.00,OVC,,0.00,WeatherDisplay:10.37,2013-03-29 20:49:00,
2013-03-29 15:55:00,50.5,35.4,30.16,South,180,2.2,3.5,56,0.00,OVC,,0.00,WeatherDisplay:10.37,2013-03-29 20:55:00,
2013-03-29 16:00:00,52.0,35.9,30.15,SSW,202,3.1,4.6,54,0.00,OVC,,0.00,WeatherDisplay:10.37,2013-03-29 21:00:00,
2013-03-29 16:05:00,52.2,36.0,30.15,SSW,202,4.0,4.6,54,0.00,OVC,,0.00,WeatherDisplay:10.37,2013-03-29 21:05:00,
2013-03-29 16:10:00,51.8,35.2,30.15,ESE,112,3.2,4.6,53,0.00,OVC,,0.00,WeatherDisplay:10.37,2013-03-29 21:10:00,
2013-03-29 16:15:00,52.7,36.0,30.15,SE,135,2.8,3.5,53,0.00,OVC,,0.00,WeatherDisplay:10.37,2013-03-29 21:15:00,
2013-03-29 16:20:00,53.6,35.9,30.15,ESE,112,2.6,3.7,51,0.00,OVC,,0.00,WeatherDisplay:10.37,2013-03-29 21:20:00,
2013-03-29 16:25:00,52.3,35.7,30.14,SSE,158,3.8,4.6,53,0.00,OVC,,0.00,WeatherDisplay:10.37,2013-03-29 21:25:00,
2013-03-29 16:30:00,53.4,36.2,30.14,ESE,112,2.6,5.8,52,0.00,OVC,,0.00,WeatherDisplay:10.37,2013-03-29 21:30:00,
2013-03-29 16:35:00,52.7,36.0,30.14,South,180,3.1,5.8,53,0.00,OVC,,0.00,WeatherDisplay:10.37,2013-03-29 21:35:00,
2013-03-29 16:40:00,52.7,36.0,30.14,SE,135,2.5,4.6,53,0.00,OVC,,0.00,WeatherDisplay:10.37,2013-03-29 21:40:00,
2013-03-29 16:46:00,52.0,35.9,30.14,South,180,4.1,4.7,54,0.00,OVC,,0.00,WeatherDisplay:10.37,2013-03-29 21:46:00,
2013-03-29 16:51:00,53.2,36.5,30.14,SW,225,3.8,4.6,53,0.00,OVC,,0.00,WeatherDisplay:10.37,2013-03-29 21:51:00,
2013-03-29 16:56:00,52.5,36.3,30.14,SSE,158,3.1,5.8,54,0.00,OVC,,0.00,WeatherDisplay:10.37,2013-03-29 21:56:00,
2013-03-29 17:01:00,52.5,35.8,30.14,South,180,2.1,4.6,53,0.00,OVC,,0.00,WeatherDisplay:10.37,2013-03-29 22:01:00,
2013-03-29 17:06:00,52.2,35.6,30.14,South,180,2.7,5.8,53,0.00,OVC,,0.00,WeatherDisplay:10.37,2013-03-29 22:06:00,
2013-03-29 17:11:00,52.5,35.8,30.13,SE,135,2.0,4.6,53,0.00,OVC,,0.00,WeatherDisplay:10.37,2013-03-29 22:11:00,
2013-03-29 17:17:00,51.6,35.9,30.13,SSW,202,4.7,5.8,55,0.00,OVC,,0.00,WeatherDisplay:10.37,2013-03-29 22:17:00,
2013-03-29 17:22:00,51.6,35.9,30.13,SSW,202,4.6,6.3,55,0.00,OVC,,0.00,WeatherDisplay:10.37,2013-03-29 22:22:00,
2013-03-29 17:27:00,51.3,36.1,30.13,SE,135,2.9,3.5,56,0.00,OVC,,0.00,WeatherDisplay:10.37,2013-03-29 22:27:00,
2013-03-29 17:32:00,51.4,36.2,30.13,SE,135,2.2,3.5,56,0.00,OVC,,0.00,WeatherDisplay:10.37,2013-03-29 22:32:00,
2013-03-29 17:37:00,52.2,36.5,30.12,ESE,112,2.6,3.5,55,0.00,OVC,,0.00,WeatherDisplay:10.37,2013-03-29 22:37:00,
2013-03-29 17:43:00,52.3,36.6,30.12,South,180,3.7,4.6,55,0.00,OVC,,0.00,WeatherDisplay:10.37,2013-03-29 22:43:00,
2013-03-29 17:48:00,52.2,36.5,30.13,SSW,202,3.1,4.6,55,0.00,OVC,,0.00,WeatherDisplay:10.37,2013-03-29 22:48:00,
2013-03-29 17:53:00,52.5,36.8,30.13,SE,135,3.6,5.3,55,0.00,OVC,,0.00,WeatherDisplay:10.37,2013-03-29 22:53:00,
2013-03-29 17:58:00,51.6,36.4,30.12,South,180,3.5,5.8,56,0.00,OVC,,0.00,WeatherDisplay:10.37,2013-03-29 22:58:00,
2013-03-29 18:03:00,51.3,36.1,30.12,SSE,158,3.6,4.6,56,0.00,OVC,,0.00,WeatherDisplay:10.37,2013-03-29 23:03:00,
2013-03-29 18:08:00,51.4,36.2,30.12,ESE,112,3.8,4.2,56,0.00,OVC,,0.00,WeatherDisplay:10.37,2013-03-29 23:08:00,
2013-03-29 18:14:00,50.7,36.5,30.12,South,180,4.4,5.8,58,0.00,OVC,,0.00,WeatherDisplay:10.37,2013-03-29 23:14:00,
2013-03-29 18:19:00,50.4,36.6,30.12,South,180,2.2,4.6,59,0.00,OVC,,0.00,WeatherDisplay:10.37,2013-03-29 23:19:00,
2013-03-29 18:24:00,50.5,36.7,30.12,South,180,3.3,3.5,59,0.00,OVC,,0.00,WeatherDisplay:10.37,2013-03-29 23:24:00,
2013-03-29 18:29:00,50.0,36.2,30.12,SSE,158,4.4,5.8,59,0.00,OVC,,0.00,WeatherDisplay:10.37,2013-03-29 23:29:00,
2013-03-29 18:34:00,49.8,36.0,30.12,South,180,3.6,3.6,59,0.00,OVC,,0.00,WeatherDisplay:10.37,2013-03-29 23:34:00,
2013-03-29 18:39:00,49.3,36.0,30.12,SSE,158,3.2,3.5,60,0.00,OVC,,0.00,WeatherDisplay:10.37,2013-03-29 23:39:00,
2013-03-29 18:50:00,49.0,36.1,29.97,SE,135,3.6,4.2,61,0.00,OVC,,0.00,WeatherDisplay:10.37,2013-03-29 23:50:00,
2013-03-29 18:55:00,47.3,35.3,30.12,SSE,158,3.0,3.5,63,0.00,OVC,,0.00,WeatherDisplay:10.37,2013-03-29 23:55:00,
2013-03-29 19:00:00,46.8,35.3,30.12,SSE,158,3.4,3.7,64,0.00,OVC,,0.00,WeatherDisplay:10.37,2013-03-30 00:00:00,
2013-03-29 19:05:00,46.6,35.1,30.12,ESE,112,3.7,4.6,64,0.00,OVC,,0.00,WeatherDisplay:10.37,2013-03-30 00:05:00,
2013-03-29 19:10:00,46.0,34.9,30.11,SE,135,3.0,3.5,65,0.00,OVC,,0.00,WeatherDisplay:10.37,2013-03-30 00:10:00,
2013-03-29 19:15:00,45.5,34.8,30.11,SSE,158,3.2,4.6,66,0.00,OVC,,0.00,WeatherDisplay:10.37,2013-03-30 00:15:00,
2013-03-29 19:20:00,45.1,34.4,30.11,SE,135,2.8,3.5,66,0.00,OVC,,0.00,WeatherDisplay:10.37,2013-03-30 00:20:00,
2013-03-29 19:25:00,45.0,34.7,30.11,ESE,112,2.3,4.2,67,0.00,OVC,,0.00,WeatherDisplay:10.37,2013-03-30 00:25:00,
2013-03-29 19:30:00,44.4,34.5,30.11,SE,135,2.9,3.5,68,0.00,OVC,,0.00,WeatherDisplay:10.37,2013-03-30 00:30:00,
2013-03-29 19:35:00,43.9,34.0,30.11,SSW,202,3.3,3.7,68,0.00,OVC,,0.00,WeatherDisplay:10.37,2013-03-30 00:35:00,
2013-03-29 19:41:00,43.7,34.2,30.11,SE,135,2.7,3.5,69,0.00,OVC,,0.00,WeatherDisplay:10.37,2013-03-30 00:41:00,
2013-03-29 19:46:00,43.3,34.2,30.10,SSE,158,1.8,3.5,70,0.00,OVC,,0.00,WeatherDisplay:10.37,2013-03-30 00:46:00,
2013-03-29 19:51:00,43.0,33.9,30.10,ESE,112,1.8,2.3,70,0.00,OVC,,0.00,WeatherDisplay:10.37,2013-03-30 00:51:00,
2013-03-29 19:56:00,42.6,33.9,30.11,SSE,158,2.3,3.5,71,0.00,OVC,,0.00,WeatherDisplay:10.37,2013-03-30 00:56:00,
2013-03-29 20:02:00,42.3,33.6,30.11,SSE,158,0.2,1.7,71,0.00,OVC,,0.00,WeatherDisplay:10.37,2013-03-30 01:02:00,
2013-03-29 20:07:00,42.1,33.7,30.11,SE,135,1.5,2.2,72,0.00,OVC,,0.00,WeatherDisplay:10.37,2013-03-30 01:07:00,
2013-03-29 20:12:00,41.9,33.5,30.11,SSE,158,1.8,2.2,72,0.00,OVC,,0.00,WeatherDisplay:10.37,2013-03-30 01:12:00,
2013-03-29 20:17:00,41.7,33.7,30.11,ESE,112,2.0,3.5,73,0.00,OVC,,0.00,WeatherDisplay:10.37,2013-03-30 01:17:00,
2013-03-29 20:22:00,41.7,33.7,30.10,SSE,158,2.4,3.2,73,0.00,OVC,,0.00,WeatherDisplay:10.37,2013-03-30 01:22:00,
2013-03-29 20:27:00,41.7,33.7,30.10,SE,135,2.1,2.3,73,0.00,OVC,,0.00,WeatherDisplay:10.37,2013-03-30 01:27:00,
2013-03-29 20:32:00,41.5,33.8,30.10,SSE,158,1.7,1.7,74,0.00,OVC,,0.00,WeatherDisplay:10.37,2013-03-30 01:32:00,
2013-03-29 20:38:00,41.4,33.7,30.10,SE,135,2.2,2.3,74,0.00,OVC,,0.00,WeatherDisplay:10.37,2013-03-30 01:38:00,
2013-03-29 20:43:00,41.4,33.7,30.10,SE,135,2.3,3.5,74,0.00,OVC,,0.00,WeatherDisplay:10.37,2013-03-30 01:43:00,
2013-03-29 20:48:00,41.4,34.1,30.10,South,180,2.1,3.5,75,0.00,OVC,,0.00,WeatherDisplay:10.37,2013-03-30 01:48:00,
2013-03-29 20:53:00,41.5,34.2,30.10,SE,135,2.5,3.5,75,0.00,OVC,,0.00,WeatherDisplay:10.37,2013-03-30 01:53:00,
2013-03-29 20:58:00,41.4,34.1,30.10,ESE,112,2.3,3.5,75,0.00,OVC,,0.00,WeatherDisplay:10.37,2013-03-30 01:58:00,
2013-03-29 21:03:00,41.4,34.1,30.10,SSE,158,2.7,3.5,75,0.00,OVC,,0.00,WeatherDisplay:10.37,2013-03-30 02:03:00,
2013-03-29 21:08:00,41.2,34.2,30.10,ESE,112,2.4,2.4,76,0.00,OVC,,0.00,WeatherDisplay:10.37,2013-03-30 02:08:00,
2013-03-29 21:13:00,41.0,34.0,30.10,ESE,112,1.7,1.7,76,0.00,OVC,,0.00,WeatherDisplay:10.37,2013-03-30 02:13:00,
2013-03-29 21:18:00,40.6,33.6,30.10,SE,135,2.0,2.3,76,0.00,OVC,,0.00,WeatherDisplay:10.37,2013-03-30 02:18:00,
2013-03-29 21:24:00,40.6,33.6,30.10,SSE,158,1.7,2.2,76,0.00,OVC,,0.00,WeatherDisplay:10.37,2013-03-30 02:24:00,
2013-03-29 21:29:00,40.6,33.6,30.10,SE,135,2.9,3.7,76,0.00,OVC,,0.00,WeatherDisplay:10.37,2013-03-30 02:29:00,
2013-03-29 21:34:00,40.6,33.6,30.10,SSE,158,2.0,2.0,76,0.00,OVC,,0.00,WeatherDisplay:10.37,2013-03-30 02:34:00,
2013-03-29 21:39:00,40.6,34.0,30.10,SE,135,3.3,4.7,77,0.00,OVC,,0.00,WeatherDisplay:10.37,2013-03-30 02:39:00,
2013-03-29 21:44:00,40.6,34.0,30.10,SSE,158,3.0,3.5,77,0.00,OVC,,0.00,WeatherDisplay:10.37,2013-03-30 02:44:00,
2013-03-29 21:49:00,40.8,34.1,30.09,ESE,112,2.4,2.4,77,0.00,OVC,,0.00,WeatherDisplay:10.37,2013-03-30 02:49:00,
2013-03-29 21:54:00,40.8,34.1,30.09,East,90,3.2,4.6,77,0.00,OVC,,0.00,WeatherDisplay:10.37,2013-03-30 02:54:00,
2013-03-29 21:59:00,41.0,34.3,30.09,ESE,112,2.2,2.7,77,0.00,OVC,,0.00,WeatherDisplay:10.37,2013-03-30 02:59:00,
2013-03-29 22:04:00,40.8,34.1,30.09,SSE,158,0.9,1.1,77,0.00,OVC,,0.00,WeatherDisplay:10.37,2013-03-30 03:04:00,
2013-03-29 22:09:00,40.6,34.0,30.09,ESE,112,2.5,3.5,77,0.00,OVC,,0.00,WeatherDisplay:10.37,2013-03-30 03:09:00,
2013-03-29 22:15:00,40.8,34.1,30.09,ESE,112,2.5,3.7,77,0.00,OVC,,0.00,WeatherDisplay:10.37,2013-03-30 03:15:00,
2013-03-29 22:20:00,40.8,34.1,30.09,ESE,112,1.8,3.5,77,0.00,OVC,,0.00,WeatherDisplay:10.37,2013-03-30 03:20:00,
2013-03-29 22:25:00,40.8,34.1,30.09,SE,135,2.9,4.6,77,0.00,OVC,,0.00,WeatherDisplay:10.37,2013-03-30 03:25:00,
2013-03-29 22:30:00,40.8,34.1,30.09,SSE,158,3.0,3.5,77,0.00,OVC,,0.00,WeatherDisplay:10.37,2013-03-30 03:30:00,
2013-03-29 22:35:00,40.8,34.1,30.09,SSE,158,1.6,2.3,77,0.00,OVC,,0.00,WeatherDisplay:10.37,2013-03-30 03:35:00,
2013-03-29 22:40:00,40.6,34.0,30.09,SSE,158,2.5,3.5,77,0.00,OVC,,0.00,WeatherDisplay:10.37,2013-03-30 03:40:00,
2013-03-29 22:45:00,40.6,34.3,30.09,South,180,1.8,2.7,78,0.00,OVC,,0.00,WeatherDisplay:10.37,2013-03-30 03:45:00,
2013-03-29 22:50:00,40.3,34.6,30.08,SE,135,2.6,3.5,80,0.00,OVC,,0.00,WeatherDisplay:10.37,2013-03-30 03:50:00,
2013-03-29 22:55:00,40.1,35.0,30.08,North,360,2.5,3.7,82,0.00,OVC,,0.00,WeatherDisplay:10.37,2013-03-30 03:55:00,
2013-03-29 23:00:00,40.1,35.4,30.08,ESE,112,2.7,2.7,83,0.00,OVC,,0.00,WeatherDisplay:10.37,2013-03-30 04:00:00,
2013-03-29 23:06:00,39.9,35.2,30.08,SSE,158,2.7,3.5,83,0.00,OVC,,0.00,WeatherDisplay:10.37,2013-03-30 04:06:00,
2013-03-29 23:10:00,39.9,35.2,30.07,ESE,112,1.8,2.3,83,0.00,OVC,,0.00,WeatherDisplay:10.37,2013-03-30 04:10:00,
2013-03-29 23:15:00,39.7,35.0,30.07,SE,135,1.7,2.7,83,0.00,OVC,,0.00,WeatherDisplay:10.37,2013-03-30 04:15:00,
2013-03-29 23:20:00,39.7,35.0,30.07,SE,135,3.3,5.8,83,0.00,OVC,,0.00,WeatherDisplay:10.37,2013-03-30 04:20:00,
2013-03-29 23:25:00,39.7,35.0,30.07,ESE,112,2.2,2.3,83,0.00,OVC,,0.00,WeatherDisplay:10.37,2013-03-30 04:25:00,
2013-03-29 23:30:00,39.7,35.0,30.07,SSE,158,2.5,3.5,83,0.00,OVC,,0.00,WeatherDisplay:10.37,2013-03-30 04:30:00,
2013-03-29 23:36:00,39.6,34.9,30.06,SSE,158,2.2,2.3,83,0.00,OVC,,0.00,WeatherDisplay:10.37,2013-03-30 04:36:00,
2013-03-29 23:41:00,39.7,35.3,30.06,ESE,112,1.9,2.7,84,0.00,OVC,,0.00,WeatherDisplay:10.37,2013-03-30 04:41:00,
2013-03-29 23:46:00,39.6,35.5,30.06,SE,135,2.7,3.7,85,0.00,OVC,,0.00,WeatherDisplay:10.37,2013-03-30 04:46:00,
2013-03-29 23:51:00,39.6,35.5,30.06,SSE,158,3.0,3.5,85,0.00,OVC,,0.00,WeatherDisplay:10.37,2013-03-30 04:51:00,
2013-03-29 23:56:00,39.7,35.3,30.06,South,180,1.9,2.3,84,0.00,OVC,,0.00,WeatherDisplay:10.37,2013-03-30 04:56:00,